This demonstration page uses our WeatherBlox Daily Observations layout. Learn more.

Hourly Observations for August 29, 2018

Temp ( °F °C ) Dew Point ( °F °C ) Humidity (%) Winds ( mph kmh ) Pressure ( in mb ) Visibility ( mi km ) Precip ( " mm )
12:15 am 00:15 Clear 54 12.4 54 12.1 98 98 N 5 7 30.12 1020 10 16.09344 0 0
12:35 am 00:35 Clear 54 12.1 54 12 99 99 NNE 3 6 30.12 1020 10 16.09344 0 0
12:55 am 00:55 Clear 54 12 54 12 100 100 N 3 6 30.12 1020 10 16.09344 0 0
1:15 am 01:15 Clear 53 11.6 53 11.6 100 100 N 5 7 30.12 1020 10 16.09344 0 0
1:35 am 01:35 Clear 53 11.5 53 11.5 100 100 N 5 7 30.12 1020 10 16.09344 0 0
1:55 am 01:55 Clear 52 11.2 52 11.2 100 100 N 5 7 30.12 1020 10 16.09344 0 0
2:15 am 02:15 Clear 52 11.3 52 11.3 100 100 Calm 30.12 1020 10 16.09344 0 0
2:35 am 02:35 Clear 53 11.4 53 11.4 100 100 Calm 30.12 1020 10 16.09344 0 0
2:55 am 02:55 Clear 52 11 52 11 100 100 Calm 30.12 1020 10 16.09344 0 0
3:15 am 03:15 Clear 51 10.6 51 10.6 100 100 Calm 30.12 1020 7 11.265408 0 0
3:35 am 03:35 Clear 50 10.2 50 10.2 100 100 Calm 30.15 1021 7 11.265408 0 0
3:55 am 03:55 Clear 51 10.3 51 10.3 100 100 Calm 30.15 1021 10 16.09344 0 0
4:15 am 04:15 Clear with Mist and Fog 49 9.4 49 9.4 100 100 Calm 30.15 1021 4 6.437376 0 0
4:35 am 04:35 Clear 50 9.8 50 9.8 100 100 Calm 30.15 1021 7 11.265408 0 0
4:55 am 04:55 Clear with Mist and Fog 50 10.1 50 10.1 100 100 NNE 3 6 30.15 1021 5 8.04672 0 0
5:15 am 05:15 Clear with Mist and Fog 50 10 50 10 100 100 NNE 3 6 30.15 1021 4 6.437376 0 0
5:35 am 05:35 Clear with Mist and Fog 50 10.2 50 10.2 100 100 Calm 30.15 1021 5 8.04672 0 0
5:55 am 05:55 Clear with Mist and Fog 49 9.4 49 9.4 100 100 Calm 30.15 1021 5 8.04672 0 0
6:15 am 06:15 Clear with Mist and Fog 49 9.2 49 9.2 100 100 Calm 30.18 1022 5 8.04672 0 0
6:35 am 06:35 Clear with Mist and Fog 48 9.1 48 9.1 100 100 Calm 30.18 1022 3 4.828032 0 0
6:55 am 06:55 Clear with Mist and Fog 48 8.8 48 8.8 100 100 W 3 6 30.18 1022 4 6.437376 0 0
7:15 am 07:15 Sunny with Mist and Fog 48 9.1 48 9.1 100 100 Calm 30.21 1023 5 8.04672 0 0
7:35 am 07:35 Sunny with Mist and Fog 49 9.3 49 9.3 100 100 Calm 30.21 1023 5 8.04672 0 0
7:55 am 07:55 Sunny with Mist and Fog 50 10.1 50 10.1 100 100 Calm 30.21 1023 4 6.437376 0 0
8:15 am 08:15 Sunny with Mist and Fog 52 11 52 11 100 100 Calm 30.18 1022 5 8.04672 0 0
8:35 am 08:35 Sunny 53 11.7 53 11.7 100 100 Calm 30.18 1022 7 11.265408 0 0
8:55 am 08:55 Sunny 55 12.7 55 12.7 100 100 Calm 30.18 1022 10 16.09344 0 0
9:15 am 09:15 Partly Cloudy 57 13.7 55 12.9 95 95 Calm 30.18 1022 10 16.09344 0 0
9:35 am 09:35 Partly Cloudy 57 14.1 54 12.2 88 88 Calm 30.18 1022 10 16.09344 0 0
9:55 am 09:55 Cloudy 60 15.3 54 12.3 82 82 ESE 5 7 30.15 1021 10 16.09344 0 0
10:15 am 10:15 Mostly Cloudy 59 14.9 53 11.8 82 82 E 6 9 30.12 1020 10 16.09344 0 0
10:35 am 10:35 Sunny 60 15.5 54 12.1 80 80 ESE 3 6 30.12 1020 10 16.09344 0 0
10:55 am 10:55 Sunny 61 15.9 53 11.6 76 76 Calm 30.15 1021 10 16.09344 0 0
11:15 am 11:15 Sunny 62 16.6 52 11.3 71 71 ESE 3 6 30.15 1021 10 16.09344 0 0
11:35 am 11:35 Sunny 63 17.2 52 11.2 68 68 ESE 5 7 30.15 1021 10 16.09344 0 0
11:55 am 11:55 Sunny 64 17.9 54 12 69 69 E 3 6 30.12 1020 10 16.09344 0 0
12:15 pm 12:15 Sunny 65 18.5 53 11.5 64 64 ESE 7 11 30.09 1019 10 16.09344 0 0
12:35 pm 12:35 Sunny 66 19 53 11.8 63 63 ESE 8 13 30.09 1019 10 16.09344 0 0
12:55 pm 12:55 Sunny 67 19.6 52 11.2 59 59 ESE 6 9 30.09 1019 10 16.09344 0 0
1:15 pm 13:15 Sunny 68 20.2 52 10.9 55 55 SE 8 13 30.09 1019 10 16.09344 0 0
1:35 pm 13:35 Sunny 69 20.6 52 10.9 54 54 ESE 10 17 30.06 1018 10 16.09344 0 0
1:55 pm 13:55 Sunny 70 21.1 53 11.5 54 54 ESE 8 13 30.03 1017 10 16.09344 0 0
2:15 pm 14:15 Sunny 71 21.5 53 11.8 54 54 ESE 7 11 30.03 1017 10 16.09344 0 0
2:35 pm 14:35 Sunny 72 22 53 11.6 52 52 ESE 10 17 30.03 1017 10 16.09344 0 0
2:55 pm 14:55 Sunny 72 22.3 53 11.8 52 52 SE 9 15 30.03 1017 10 16.09344 0 0
3:15 pm 15:15 Sunny 73 22.5 55 12.7 54 54 SSE 13 20 30.03 1017 10 16.09344 0 0
3:35 pm 15:35 Sunny 74 23.1 54 12.3 51 51 SSE 10 17 30.03 1017 10 16.09344 0 0
3:55 pm 15:55 Sunny 73 22.9 54 12.3 51 51 SE 10 17 30.03 1017 10 16.09344 0 0
4:15 pm 16:15 Sunny 74 23.2 53 11.8 49 49 SSE 12 19 30.03 1017 10 16.09344 0 0
4:35 pm 16:35 Partly Cloudy 74 23.2 53 11.8 49 49 SE 9 15 30.03 1017 10 16.09344 0 0
4:55 pm 16:55 Partly Cloudy 74 23.5 54 12.2 49 49 SE 14 22 30.03 1017 10 16.09344 0 0
5:15 pm 17:15 Sunny 74 23.6 55 12.8 51 51 SSE 9 15 30.03 1017 10 16.09344 0 0
5:35 pm 17:35 Sunny 74 23.5 53 11.9 48 48 SSE 10 17 30 1016 10 16.09344 0 0
5:55 pm 17:55 Sunny 74 23.3 54 12 49 49 SE 9 15 30 1016 10 16.09344 0 0
6:15 pm 18:15 Sunny 74 23.1 55 12.6 52 52 SE 9 15 30 1016 10 16.09344 0 0
6:35 pm 18:35 Sunny 73 23 54 12.3 51 51 SE 12 19 30 1016 10 16.09344 0 0
6:55 pm 18:55 Sunny 73 22.5 55 12.9 55 55 SE 7 11 30 1016 10 16.09344 0 0
7:15 pm 19:15 Sunny 72 22 55 12.9 56 56 SE 7 11 30 1016 10 16.09344 0 0
7:35 pm 19:35 Sunny 70 20.9 57 13.9 64 64 SE 6 9 30 1016 10 16.09344 0 0
7:55 pm 19:55 Sunny 67 19.2 57 14 72 72 ESE 7 11 30.03 1017 10 16.09344 0 0
8:15 pm 20:15 Clear 65 18.3 57 13.8 75 75 SE 7 11 30.03 1017 10 16.09344 0 0
8:35 pm 20:35 Clear 63 17.2 57 13.8 81 81 SE 7 11 30.03 1017 10 16.09344 0 0
8:55 pm 20:55 Clear 61 16 57 13.7 86 86 SE 6 9 30.06 1018 10 16.09344 0 0
9:15 pm 21:15 Clear 61 16.2 56 13.6 85 85 SE 6 9 30.06 1018 10 16.09344 0 0
9:35 pm 21:35 Clear 60 15.4 56 13.6 89 89 SE 5 7 30.06 1018 10 16.09344 0 0
9:55 pm 21:55 Clear 58 14.6 56 13.5 93 93 ESE 6 9 30.06 1018 10 16.09344 0 0
10:15 pm 22:15 Clear 58 14.7 56 13.5 93 93 ESE 7 11 30.06 1018 10 16.09344 0 0
10:35 pm 22:35 Clear 60 15.5 56 13.6 89 89 SE 7 11 30.06 1018 10 16.09344 0 0
10:55 pm 22:55 Clear 59 14.8 56 13.5 92 92 ESE 6 9 30.06 1018 10 16.09344 0 0
11:15 pm 23:15 Clear 58 14.6 56 13.5 93 93 ESE 6 9 30.06 1018 10 16.09344 0 0
11:35 pm 23:35 Clear 58 14.5 56 13.3 93 93 ESE 7 11 30.06 1018 10 16.09344 0 0
11:55 pm 23:55 Clear 59 15 56 13.6 91 91 SE 7 11 30.09 1019 10 16.09344 0 0

Powered by AerisWeather